Data supplied by UK-AIR on 27/4/2024
All Data GMT hour ending 
Status: R =Ratified P=Provisional,P*=As supplied
,,Inverness,,,,,,,,,,,,,,,,,,,,,,,
Date,time,"PM<sub>10</sub> particulate matter (Hourly measured)",status,unit,"Nitric oxide",status,unit,"Nitrogen dioxide",status,unit,"Nitrogen oxides as nitrogen dioxide",status,unit,"PM<sub>2.5</sub> particulate matter (Hourly measured)",status,unit
 
01-01-2023,01:00,24.200,R,ugm-3 (FIDAS),2.68570,R,ugm-3,16.36120,R,ugm-3,20.47921,R,ugm-3,20.401,R,ugm-3 (Ref.eq)
01-01-2023,02:00,4.800,R,ugm-3 (FIDAS),0.70676,R,ugm-3,12.05530,R,ugm-3,13.13899,R,ugm-3,3.561,R,ugm-3 (Ref.eq)
01-01-2023,03:00,4.525,R,ugm-3 (FIDAS),0.49473,R,ugm-3,5.13194,R,ugm-3,5.89053,R,ugm-3,2.854,R,ugm-3 (Ref.eq)
01-01-2023,04:00,5.975,R,ugm-3 (FIDAS),0.63609,R,ugm-3,4.25459,R,ugm-3,5.22991,R,ugm-3,3.396,R,ugm-3 (Ref.eq)
01-01-2023,05:00,3.950,R,ugm-3 (FIDAS),0.60075,R,ugm-3,2.93248,R,ugm-3,3.85362,R,ugm-3,2.453,R,ugm-3 (Ref.eq)
01-01-2023,06:00,3.350,R,ugm-3 (FIDAS),0.53007,R,ugm-3,2.93075,R,ugm-3,3.74351,R,ugm-3,2.170,R,ugm-3 (Ref.eq)
01-01-2023,07:00,3.475,R,ugm-3 (FIDAS),0.49473,R,ugm-3,3.86576,R,ugm-3,4.62434,R,ugm-3,2.075,R,ugm-3 (Ref.eq)
01-01-2023,08:00,3.050,R,ugm-3 (FIDAS),2.47367,R,ugm-3,10.46547,R,ugm-3,14.25837,R,ugm-3,2.052,R,ugm-3 (Ref.eq)
01-01-2023,09:00,7.800,R,ugm-3 (FIDAS),5.19471,R,ugm-3,24.84567,R,ugm-3,32.81078,R,ugm-3,6.085,R,ugm-3 (Ref.eq)
01-01-2023,10:00,11.625,R,ugm-3 (FIDAS),8.62251,R,ugm-3,30.15970,R,ugm-3,43.38069,R,ugm-3,9.976,R,ugm-3 (Ref.eq)
01-01-2023,11:00,18.725,R,ugm-3 (FIDAS),13.35782,R,ugm-3,34.07447,R,ugm-3,54.55617,R,ugm-3,17.076,R,ugm-3 (Ref.eq)
01-01-2023,12:00,2.700,R,ugm-3 (FIDAS),2.61502,R,ugm-3,14.65286,R,ugm-3,18.66250,R,ugm-3,2.241,R,ugm-3 (Ref.eq)
01-01-2023,13:00,4.025,R,ugm-3 (FIDAS),11.83828,R,ugm-3,26.05469,R,ugm-3,44.20646,R,ugm-3,3.278,R,ugm-3 (Ref.eq)
01-01-2023,14:00,8.450,R,ugm-3 (FIDAS),13.21647,R,ugm-3,30.60274,R,ugm-3,50.86771,R,ugm-3,7.170,R,ugm-3 (Ref.eq)
01-01-2023,15:00,5.975,R,ugm-3 (FIDAS),9.93002,R,ugm-3,24.85178,R,ugm-3,40.07759,R,ugm-3,5.118,R,ugm-3 (Ref.eq)
01-01-2023,16:00,5.625,R,ugm-3 (FIDAS),17.70441,R,ugm-3,30.05226,R,ugm-3,57.19865,R,ugm-3,4.434,R,ugm-3 (Ref.eq)
01-01-2023,17:00,8.975,R,ugm-3 (FIDAS),15.83149,R,ugm-3,28.57496,R,ugm-3,52.84957,R,ugm-3,7.476,R,ugm-3 (Ref.eq)
01-01-2023,18:00,7.450,R,ugm-3 (FIDAS),11.48490,R,ugm-3,26.65158,R,ugm-3,44.26152,R,ugm-3,6.132,R,ugm-3 (Ref.eq)
01-01-2023,19:00,8.750,R,ugm-3 (FIDAS),17.95178,R,ugm-3,37.82062,R,ugm-3,65.34629,R,ugm-3,6.533,R,ugm-3 (Ref.eq)
01-01-2023,20:00,29.425,R,ugm-3 (FIDAS),51.73504,R,ugm-3,53.89900,R,ugm-3,133.22496,R,ugm-3,26.533,R,ugm-3 (Ref.eq)
01-01-2023,21:00,15.175,R,ugm-3 (FIDAS),10.17739,R,ugm-3,26.34424,R,ugm-3,41.94935,R,ugm-3,13.514,R,ugm-3 (Ref.eq)
01-01-2023,22:00,5.400,R,ugm-3 (FIDAS),7.56236,R,ugm-3,13.61819,R,ugm-3,25.21365,R,ugm-3,4.575,R,ugm-3 (Ref.eq)
01-01-2023,23:00,8.350,R,ugm-3 (FIDAS),5.58343,R,ugm-3,11.75292,R,ugm-3,20.31405,R,ugm-3,7.500,R,ugm-3 (Ref.eq)
01-01-2023,24:00,2.700,R,ugm-3 (FIDAS),2.26164,R,ugm-3,5.72582,R,ugm-3,9.19362,R,ugm-3,2.193,R,ugm-3 (Ref.eq)
02-01-2023,01:00,1.575,R,ugm-3 (FIDAS),,,,,,,,,,1.274,R,ugm-3 (Ref.eq)
02-01-2023,02:00,1.225,R,ugm-3 (FIDAS),0.94235,R,ugm-3,2.88581,R,ugm-3,4.33073,R,ugm-3,0.825,R,ugm-3 (Ref.eq)
02-01-2023,03:00,1.475,R,ugm-3 (FIDAS),0.31804,R,ugm-3,1.21894,R,ugm-3,1.70660,R,ugm-3,0.920,R,ugm-3 (Ref.eq)
02-01-2023,04:00,1.025,R,ugm-3 (FIDAS),0.60075,R,ugm-3,2.16176,R,ugm-3,3.08289,R,ugm-3,0.613,R,ugm-3 (Ref.eq)
02-01-2023,05:00,1.275,R,ugm-3 (FIDAS),0.77744,R,ugm-3,1.61558,R,ugm-3,2.80763,R,ugm-3,0.660,R,ugm-3 (Ref.eq)
02-01-2023,06:00,1.150,R,ugm-3 (FIDAS),1.02481,R,ugm-3,2.50247,R,ugm-3,4.07382,R,ugm-3,0.708,R,ugm-3 (Ref.eq)
02-01-2023,07:00,1.275,R,ugm-3 (FIDAS),3.03908,R,ugm-3,4.80902,R,ugm-3,9.46888,R,ugm-3,0.849,R,ugm-3 (Ref.eq)
02-01-2023,08:00,1.600,R,ugm-3 (FIDAS),4.69997,R,ugm-3,10.79536,R,ugm-3,18.00188,R,ugm-3,0.943,R,ugm-3 (Ref.eq)
02-01-2023,09:00,1.600,R,ugm-3 (FIDAS),4.31125,R,ugm-3,7.48272,R,ugm-3,14.09322,R,ugm-3,0.991,R,ugm-3 (Ref.eq)
02-01-2023,10:00,2.675,R,ugm-3 (FIDAS),7.66838,R,ugm-3,11.80409,R,ugm-3,23.56210,R,ugm-3,1.533,R,ugm-3 (Ref.eq)
02-01-2023,11:00,3.225,R,ugm-3 (FIDAS),11.76760,R,ugm-3,18.12552,R,ugm-3,36.16893,R,ugm-3,1.462,R,ugm-3 (Ref.eq)
02-01-2023,12:00,2.600,R,ugm-3 (FIDAS),12.33301,R,ugm-3,9.44124,R,ugm-3,28.35159,R,ugm-3,1.627,R,ugm-3 (Ref.eq)
02-01-2023,13:00,3.125,R,ugm-3 (FIDAS),20.03673,R,ugm-3,15.85113,R,ugm-3,46.57368,R,ugm-3,1.958,R,ugm-3 (Ref.eq)
02-01-2023,14:00,2.875,R,ugm-3 (FIDAS),11.59091,R,ugm-3,18.28634,R,ugm-3,36.05882,R,ugm-3,1.580,R,ugm-3 (Ref.eq)
02-01-2023,15:00,2.950,R,ugm-3 (FIDAS),18.48185,R,ugm-3,19.88679,R,ugm-3,48.22523,R,ugm-3,1.745,R,ugm-3 (Ref.eq)
02-01-2023,16:00,6.975,R,ugm-3 (FIDAS),26.68030,R,ugm-3,35.66760,R,ugm-3,76.57683,R,ugm-3,5.637,R,ugm-3 (Ref.eq)
02-01-2023,17:00,8.525,R,ugm-3 (FIDAS),23.81791,R,ugm-3,37.19385,R,ugm-3,73.71414,R,ugm-3,6.981,R,ugm-3 (Ref.eq)
02-01-2023,18:00,12.425,R,ugm-3 (FIDAS),26.85699,R,ugm-3,49.43485,R,ugm-3,90.61499,R,ugm-3,9.976,R,ugm-3 (Ref.eq)
02-01-2023,19:00,7.400,R,ugm-3 (FIDAS),20.21342,R,ugm-3,35.67405,R,ugm-3,66.66753,R,ugm-3,5.118,R,ugm-3 (Ref.eq)
02-01-2023,20:00,11.225,R,ugm-3 (FIDAS),11.76760,R,ugm-3,22.69481,R,ugm-3,40.73821,R,ugm-3,9.222,R,ugm-3 (Ref.eq)
02-01-2023,21:00,19.025,R,ugm-3 (FIDAS),25.90286,R,ugm-3,51.72360,R,ugm-3,91.44077,R,ugm-3,15.708,R,ugm-3 (Ref.eq)
02-01-2023,22:00,15.225,R,ugm-3 (FIDAS),22.72243,R,ugm-3,45.20451,R,ugm-3,80.04508,R,ugm-3,12.830,R,ugm-3 (Ref.eq)
02-01-2023,23:00,13.750,R,ugm-3 (FIDAS),17.10366,R,ugm-3,35.87300,R,ugm-3,62.09824,R,ugm-3,11.840,R,ugm-3 (Ref.eq)
02-01-2023,24:00,12.675,R,ugm-3 (FIDAS),9.50596,R,ugm-3,23.07972,R,ugm-3,37.65532,R,ugm-3,10.896,R,ugm-3 (Ref.eq)
03-01-2023,01:00,12.175,R,ugm-3 (FIDAS),3.91075,R,ugm-3,21.52941,R,ugm-3,27.52582,R,ugm-3,10.708,R,ugm-3 (Ref.eq)
03-01-2023,02:00,13.525,R,ugm-3 (FIDAS),3.53381,R,ugm-3,19.53830,R,ugm-3,24.95674,R,ugm-3,11.651,R,ugm-3 (Ref.eq)
03-01-2023,03:00,7.275,R,ugm-3 (FIDAS),3.53381,R,ugm-3,21.33666,R,ugm-3,26.75510,R,ugm-3,6.321,R,ugm-3 (Ref.eq)
03-01-2023,04:00,6.200,R,ugm-3 (FIDAS),1.13082,R,ugm-3,14.01087,R,ugm-3,15.74477,R,ugm-3,5.307,R,ugm-3 (Ref.eq)
03-01-2023,05:00,3.275,R,ugm-3 (FIDAS),6.04282,R,ugm-3,19.58153,R,ugm-3,28.84706,R,ugm-3,2.123,R,ugm-3 (Ref.eq)
03-01-2023,06:00,4.200,R,ugm-3 (FIDAS),2.12029,R,ugm-3,14.31041,R,ugm-3,17.56147,R,ugm-3,2.075,R,ugm-3 (Ref.eq)
03-01-2023,07:00,3.500,R,ugm-3 (FIDAS),1.66089,R,ugm-3,3.12365,R,ugm-3,5.67032,R,ugm-3,1.934,R,ugm-3 (Ref.eq)
03-01-2023,08:00,3.175,R,ugm-3 (FIDAS),2.82705,R,ugm-3,6.51042,R,ugm-3,10.84517,R,ugm-3,1.745,R,ugm-3 (Ref.eq)
03-01-2023,09:00,3.375,R,ugm-3 (FIDAS),3.71051,R,ugm-3,10.27561,R,ugm-3,15.96497,R,ugm-3,1.439,R,ugm-3 (Ref.eq)
03-01-2023,10:00,1.375,R,ugm-3 (FIDAS),5.93681,R,ugm-3,8.18323,R,ugm-3,17.28621,R,ugm-3,0.731,R,ugm-3 (Ref.eq)
03-01-2023,11:00,1.200,R,ugm-3 (FIDAS),7.13831,R,ugm-3,10.13953,R,ugm-3,21.08478,R,ugm-3,0.566,R,ugm-3 (Ref.eq)
03-01-2023,12:00,1.475,R,ugm-3 (FIDAS),15.97284,R,ugm-3,16.52212,R,ugm-3,41.01347,R,ugm-3,0.637,R,ugm-3 (Ref.eq)
03-01-2023,13:00,1.825,R,ugm-3 (FIDAS),17.91644,R,ugm-3,20.69869,R,ugm-3,48.17018,R,ugm-3,0.873,R,ugm-3 (Ref.eq)
03-01-2023,14:00,3.125,R,ugm-3 (FIDAS),19.61267,R,ugm-3,19.74939,R,ugm-3,49.82173,R,ugm-3,1.203,R,ugm-3 (Ref.eq)
03-01-2023,15:00,5.425,R,ugm-3 (FIDAS),17.88110,R,ugm-3,23.83577,R,ugm-3,51.25307,R,ugm-3,3.160,R,ugm-3 (Ref.eq)
03-01-2023,16:00,6.425,R,ugm-3 (FIDAS),31.59230,R,ugm-3,36.39372,R,ugm-3,84.83457,R,ugm-3,4.151,R,ugm-3 (Ref.eq)
03-01-2023,17:00,10.850,R,ugm-3 (FIDAS),41.34563,R,ugm-3,46.70752,R,ugm-3,110.10327,R,ugm-3,7.547,R,ugm-3 (Ref.eq)
03-01-2023,18:00,8.450,R,ugm-3 (FIDAS),8.19845,R,ugm-3,32.51651,R,ugm-3,45.08729,R,ugm-3,6.958,R,ugm-3 (Ref.eq)
03-01-2023,19:00,6.650,R,ugm-3 (FIDAS),5.97215,R,ugm-3,21.61670,R,ugm-3,30.77386,R,ugm-3,5.637,R,ugm-3 (Ref.eq)
03-01-2023,20:00,10.875,R,ugm-3 (FIDAS),3.42780,R,ugm-3,19.90271,R,ugm-3,25.15860,R,ugm-3,9.481,R,ugm-3 (Ref.eq)
03-01-2023,21:00,13.925,R,ugm-3 (FIDAS),6.29019,R,ugm-3,20.96389,R,ugm-3,30.60871,R,ugm-3,12.476,R,ugm-3 (Ref.eq)
03-01-2023,22:00,7.800,R,ugm-3 (FIDAS),1.59022,R,ugm-3,13.36152,R,ugm-3,15.79982,R,ugm-3,7.076,R,ugm-3 (Ref.eq)
03-01-2023,23:00,8.200,R,ugm-3 (FIDAS),0.88345,R,ugm-3,10.97696,R,ugm-3,12.33157,R,ugm-3,7.571,R,ugm-3 (Ref.eq)
03-01-2023,24:00,7.750,R,ugm-3 (FIDAS),0.45940,R,ugm-3,7.88366,R,ugm-3,8.58805,R,ugm-3,7.005,R,ugm-3 (Ref.eq)
04-01-2023,01:00,5.100,R,ugm-3 (FIDAS),0.75388,R,ugm-3,7.72573,R,ugm-3,8.88166,R,ugm-3,4.245,R,ugm-3 (Ref.eq)
04-01-2023,02:00,1.850,R,ugm-3 (FIDAS),0.89523,R,ugm-3,6.77497,R,ugm-3,8.14764,R,ugm-3,1.604,R,ugm-3 (Ref.eq)
04-01-2023,03:00,2.825,R,ugm-3 (FIDAS),0.70676,R,ugm-3,6.23818,R,ugm-3,7.32187,R,ugm-3,2.193,R,ugm-3 (Ref.eq)
04-01-2023,04:00,1.825,R,ugm-3 (FIDAS),1.34285,R,ugm-3,6.30884,R,ugm-3,8.36785,R,ugm-3,1.250,R,ugm-3 (Ref.eq)
04-01-2023,05:00,0.950,R,ugm-3 (FIDAS),1.62556,R,ugm-3,3.45309,R,ugm-3,5.94558,R,ugm-3,0.401,R,ugm-3 (Ref.eq)
04-01-2023,06:00,0.625,R,ugm-3 (FIDAS),1.62556,R,ugm-3,3.45309,R,ugm-3,5.94558,R,ugm-3,0.283,R,ugm-3 (Ref.eq)
04-01-2023,07:00,3.125,R,ugm-3 (FIDAS),10.03603,R,ugm-3,15.49560,R,ugm-3,30.88397,R,ugm-3,1.274,R,ugm-3 (Ref.eq)
04-01-2023,08:00,4.000,R,ugm-3 (FIDAS),30.74419,R,ugm-3,37.85930,R,ugm-3,84.99972,R,ugm-3,1.698,R,ugm-3 (Ref.eq)
04-01-2023,09:00,4.325,R,ugm-3 (FIDAS),58.73200,R,ugm-3,61.66783,R,ugm-3,151.72231,R,ugm-3,2.123,R,ugm-3 (Ref.eq)
04-01-2023,10:00,7.575,R,ugm-3 (FIDAS),48.44860,R,ugm-3,56.79113,R,ugm-3,131.07794,R,ugm-3,4.175,R,ugm-3 (Ref.eq)
04-01-2023,11:00,9.700,R,ugm-3 (FIDAS),47.52981,R,ugm-3,51.48363,R,ugm-3,124.36164,R,ugm-3,6.745,R,ugm-3 (Ref.eq)
04-01-2023,12:00,7.550,R,ugm-3 (FIDAS),64.52745,R,ugm-3,49.91891,R,ugm-3,148.85962,R,ugm-3,4.245,R,ugm-3 (Ref.eq)
04-01-2023,13:00,2.900,R,ugm-3 (FIDAS),30.35547,R,ugm-3,28.98645,R,ugm-3,75.53084,R,ugm-3,1.368,R,ugm-3 (Ref.eq)
04-01-2023,14:00,4.975,R,ugm-3 (FIDAS),35.47950,R,ugm-3,34.45220,R,ugm-3,88.85334,R,ugm-3,2.311,R,ugm-3 (Ref.eq)
04-01-2023,15:00,5.750,R,ugm-3 (FIDAS),39.96744,R,ugm-3,31.75471,R,ugm-3,93.03726,R,ugm-3,2.995,R,ugm-3 (Ref.eq)
04-01-2023,16:00,7.275,R,ugm-3 (FIDAS),46.85838,R,ugm-3,43.09930,R,ugm-3,114.94781,R,ugm-3,4.599,R,ugm-3 (Ref.eq)
04-01-2023,17:00,6.325,R,ugm-3 (FIDAS),26.60962,R,ugm-3,28.45410,R,ugm-3,69.25496,R,ugm-3,3.844,R,ugm-3 (Ref.eq)
04-01-2023,18:00,8.025,R,ugm-3 (FIDAS),30.81486,R,ugm-3,29.82349,R,ugm-3,77.07229,R,ugm-3,4.953,R,ugm-3 (Ref.eq)
04-01-2023,19:00,7.750,R,ugm-3 (FIDAS),18.51719,R,ugm-3,25.99839,R,ugm-3,54.39102,R,ugm-3,5.000,R,ugm-3 (Ref.eq)
04-01-2023,20:00,9.850,R,ugm-3 (FIDAS),21.48559,R,ugm-3,30.53042,R,ugm-3,63.47453,R,ugm-3,6.840,R,ugm-3 (Ref.eq)
04-01-2023,21:00,10.475,R,ugm-3 (FIDAS),14.02924,R,ugm-3,29.24640,R,ugm-3,50.75761,R,ugm-3,8.208,R,ugm-3 (Ref.eq)
04-01-2023,22:00,15.250,R,ugm-3 (FIDAS),7.52703,R,ugm-3,29.69240,R,ugm-3,41.23367,R,ugm-3,12.948,R,ugm-3 (Ref.eq)
04-01-2023,23:00,15.575,R,ugm-3 (FIDAS),11.66159,R,ugm-3,29.57366,R,ugm-3,47.45451,R,ugm-3,12.335,R,ugm-3 (Ref.eq)
04-01-2023,24:00,4.000,R,ugm-3 (FIDAS),2.75638,R,ugm-3,6.67384,R,ugm-3,10.90022,R,ugm-3,2.429,R,ugm-3 (Ref.eq)
05-01-2023,01:00,5.475,R,ugm-3 (FIDAS),3.53381,R,ugm-3,8.23437,R,ugm-3,13.65281,R,ugm-3,3.420,R,ugm-3 (Ref.eq)
05-01-2023,02:00,5.050,R,ugm-3 (FIDAS),1.55488,R,ugm-3,4.07528,R,ugm-3,6.45939,R,ugm-3,2.642,R,ugm-3 (Ref.eq)
05-01-2023,03:00,3.925,R,ugm-3 (FIDAS),0.84812,R,ugm-3,1.61731,R,ugm-3,2.91774,R,ugm-3,2.028,R,ugm-3 (Ref.eq)
05-01-2023,04:00,4.300,R,ugm-3 (FIDAS),0.67143,R,ugm-3,2.87916,R,ugm-3,3.90867,R,ugm-3,2.146,R,ugm-3 (Ref.eq)
05-01-2023,05:00,3.625,R,ugm-3 (FIDAS),1.30751,R,ugm-3,4.21601,R,ugm-3,6.22084,R,ugm-3,1.934,R,ugm-3 (Ref.eq)
05-01-2023,06:00,2.950,R,ugm-3 (FIDAS),3.88720,R,ugm-3,3.12324,R,ugm-3,9.08352,R,ugm-3,1.533,R,ugm-3 (Ref.eq)
05-01-2023,07:00,3.475,R,ugm-3 (FIDAS),5.44208,R,ugm-3,6.73975,R,ugm-3,15.08415,R,ugm-3,2.028,R,ugm-3 (Ref.eq)
05-01-2023,08:00,4.500,R,ugm-3 (FIDAS),19.40064,R,ugm-3,14.89964,R,ugm-3,44.64688,R,ugm-3,2.500,R,ugm-3 (Ref.eq)
05-01-2023,09:00,5.175,R,ugm-3 (FIDAS),24.59535,R,ugm-3,23.39497,R,ugm-3,61.10732,R,ugm-3,3.019,R,ugm-3 (Ref.eq)
05-01-2023,10:00,5.800,R,ugm-3 (FIDAS),24.70136,R,ugm-3,28.07696,R,ugm-3,65.95186,R,ugm-3,3.491,R,ugm-3 (Ref.eq)
05-01-2023,11:00,7.100,R,ugm-3 (FIDAS),30.70885,R,ugm-3,31.74770,R,ugm-3,78.83394,R,ugm-3,4.717,R,ugm-3 (Ref.eq)
05-01-2023,12:00,10.825,R,ugm-3 (FIDAS),56.85908,R,ugm-3,53.47423,R,ugm-3,140.65693,R,ugm-3,6.627,R,ugm-3 (Ref.eq)
05-01-2023,13:00,7.975,R,ugm-3 (FIDAS),25.54948,R,ugm-3,32.11655,R,ugm-3,71.29187,R,ugm-3,4.788,R,ugm-3 (Ref.eq)
05-01-2023,14:00,16.375,R,ugm-3 (FIDAS),87.63860,R,ugm-3,60.12012,R,ugm-3,194.49743,R,ugm-3,10.708,R,ugm-3 (Ref.eq)
05-01-2023,15:00,12.125,R,ugm-3 (FIDAS),43.21855,R,ugm-3,54.57082,R,ugm-3,120.83834,R,ugm-3,8.208,R,ugm-3 (Ref.eq)
05-01-2023,16:00,13.650,R,ugm-3 (FIDAS),43.92531,R,ugm-3,43.13742,R,ugm-3,110.48863,R,ugm-3,9.811,R,ugm-3 (Ref.eq)
05-01-2023,17:00,16.950,R,ugm-3 (FIDAS),30.00209,R,ugm-3,46.48419,R,ugm-3,92.48675,R,ugm-3,13.774,R,ugm-3 (Ref.eq)
05-01-2023,18:00,13.425,R,ugm-3 (FIDAS),10.10671,R,ugm-3,30.52643,R,ugm-3,46.02317,R,ugm-3,10.566,R,ugm-3 (Ref.eq)
05-01-2023,19:00,14.350,R,ugm-3 (FIDAS),22.65175,R,ugm-3,28.35697,R,ugm-3,63.08917,R,ugm-3,11.344,R,ugm-3 (Ref.eq)
05-01-2023,20:00,6.900,R,ugm-3 (FIDAS),7.80973,R,ugm-3,6.19229,R,ugm-3,18.16704,R,ugm-3,4.410,R,ugm-3 (Ref.eq)
05-01-2023,21:00,5.050,R,ugm-3 (FIDAS),7.27966,R,ugm-3,5.13330,R,ugm-3,16.29528,R,ugm-3,3.491,R,ugm-3 (Ref.eq)
05-01-2023,22:00,4.700,R,ugm-3 (FIDAS),3.00374,R,ugm-3,4.31269,R,ugm-3,8.91836,R,ugm-3,3.396,R,ugm-3 (Ref.eq)
05-01-2023,23:00,4.550,R,ugm-3 (FIDAS),0.88345,R,ugm-3,2.27880,R,ugm-3,3.63341,R,ugm-3,3.113,R,ugm-3 (Ref.eq)
05-01-2023,24:00,4.400,R,ugm-3 (FIDAS),1.37819,R,ugm-3,0.96970,R,ugm-3,3.08289,R,ugm-3,2.901,R,ugm-3 (Ref.eq)
06-01-2023,01:00,4.600,R,ugm-3 (FIDAS),0.56541,R,ugm-3,1.04151,R,ugm-3,1.90846,R,ugm-3,3.231,R,ugm-3 (Ref.eq)
06-01-2023,02:00,3.650,R,ugm-3 (FIDAS),0.80100,R,ugm-3,0.53347,R,ugm-3,1.76165,R,ugm-3,2.335,R,ugm-3 (Ref.eq)
06-01-2023,03:00,5.850,R,ugm-3 (FIDAS),0.53007,R,ugm-3,0.67363,R,ugm-3,1.48640,R,ugm-3,3.797,R,ugm-3 (Ref.eq)
06-01-2023,04:00,5.425,R,ugm-3 (FIDAS),0.38872,R,ugm-3,0.44995,R,ugm-3,1.04598,R,ugm-3,3.774,R,ugm-3 (Ref.eq)
06-01-2023,05:00,2.725,R,ugm-3 (FIDAS),0.49473,R,ugm-3,0.89297,R,ugm-3,1.65155,R,ugm-3,1.958,R,ugm-3 (Ref.eq)
06-01-2023,06:00,1.725,R,ugm-3 (FIDAS),0.60075,R,ugm-3,1.33598,R,ugm-3,2.25712,R,ugm-3,1.179,R,ugm-3 (Ref.eq)
06-01-2023,07:00,2.075,R,ugm-3 (FIDAS),1.80225,R,ugm-3,1.58568,R,ugm-3,4.34908,R,ugm-3,1.132,R,ugm-3 (Ref.eq)
06-01-2023,08:00,1.425,R,ugm-3 (FIDAS),3.00374,R,ugm-3,3.70712,R,ugm-3,8.31280,R,ugm-3,0.731,R,ugm-3 (Ref.eq)
06-01-2023,09:00,4.350,R,ugm-3 (FIDAS),5.97215,R,ugm-3,5.26637,R,ugm-3,14.42353,R,ugm-3,2.547,R,ugm-3 (Ref.eq)
06-01-2023,10:00,7.125,R,ugm-3 (FIDAS),5.79546,R,ugm-3,3.66553,R,ugm-3,12.55177,R,ugm-3,4.434,R,ugm-3 (Ref.eq)
06-01-2023,11:00,6.800,R,ugm-3 (FIDAS),5.26538,R,ugm-3,6.07479,R,ugm-3,14.14827,R,ugm-3,3.939,R,ugm-3 (Ref.eq)
06-01-2023,12:00,7.300,R,ugm-3 (FIDAS),10.88415,R,ugm-3,9.18547,R,ugm-3,25.87427,R,ugm-3,4.198,R,ugm-3 (Ref.eq)
06-01-2023,13:00,5.375,R,ugm-3 (FIDAS),18.62320,R,ugm-3,14.55025,R,ugm-3,43.10543,R,ugm-3,3.160,R,ugm-3 (Ref.eq)
06-01-2023,14:00,6.150,R,ugm-3 (FIDAS),15.58412,R,ugm-3,23.94455,R,ugm-3,47.83987,R,ugm-3,3.137,R,ugm-3 (Ref.eq)
06-01-2023,15:00,5.900,R,ugm-3 (FIDAS),13.92323,R,ugm-3,20.76585,R,ugm-3,42.11450,R,ugm-3,3.042,R,ugm-3 (Ref.eq)
06-01-2023,16:00,5.350,R,ugm-3 (FIDAS),23.64122,R,ugm-3,27.44538,R,ugm-3,63.69474,R,ugm-3,3.042,R,ugm-3 (Ref.eq)
06-01-2023,17:00,6.625,R,ugm-3 (FIDAS),31.52163,R,ugm-3,27.25341,R,ugm-3,75.58589,R,ugm-3,4.481,R,ugm-3 (Ref.eq)
06-01-2023,18:00,10.425,R,ugm-3 (FIDAS),45.30350,R,ugm-3,39.75805,R,ugm-3,109.22244,R,ugm-3,7.335,R,ugm-3 (Ref.eq)
06-01-2023,19:00,28.950,R,ugm-3 (FIDAS),43.04186,R,ugm-3,66.89805,R,ugm-3,132.89465,R,ugm-3,23.609,R,ugm-3 (Ref.eq)
06-01-2023,20:00,30.025,R,ugm-3 (FIDAS),78.94542,R,ugm-3,78.45918,R,ugm-3,199.50713,R,ugm-3,24.198,R,ugm-3 (Ref.eq)
06-01-2023,21:00,20.625,R,ugm-3 (FIDAS),50.74558,R,ugm-3,67.41742,R,ugm-3,145.22621,R,ugm-3,16.297,R,ugm-3 (Ref.eq)
06-01-2023,22:00,12.525,R,ugm-3 (FIDAS),19.50666,R,ugm-3,47.43776,R,ugm-3,77.34755,R,ugm-3,9.693,R,ugm-3 (Ref.eq)
06-01-2023,23:00,8.125,R,ugm-3 (FIDAS),19.93071,R,ugm-3,30.49226,R,ugm-3,61.05226,R,ugm-3,6.132,R,ugm-3 (Ref.eq)
06-01-2023,24:00,4.975,R,ugm-3 (FIDAS),3.03908,R,ugm-3,26.99483,R,ugm-3,31.65469,R,ugm-3,3.090,R,ugm-3 (Ref.eq)
07-01-2023,01:00,6.650,R,ugm-3 (FIDAS),1.88470,R,ugm-3,23.16794,R,ugm-3,26.05777,R,ugm-3,4.976,R,ugm-3 (Ref.eq)
07-01-2023,02:00,2.275,R,ugm-3 (FIDAS),1.41353,R,ugm-3,9.13656,R,ugm-3,11.30394,R,ugm-3,1.627,R,ugm-3 (Ref.eq)
07-01-2023,03:00,2.750,R,ugm-3 (FIDAS),1.90826,R,ugm-3,18.43408,R,ugm-3,21.36003,R,ugm-3,2.075,R,ugm-3 (Ref.eq)
07-01-2023,04:00,3.000,R,ugm-3 (FIDAS),0.95413,R,ugm-3,14.11664,R,ugm-3,15.57961,R,ugm-3,2.217,R,ugm-3 (Ref.eq)
07-01-2023,05:00,3.400,R,ugm-3 (FIDAS),1.13082,R,ugm-3,11.03808,R,ugm-3,12.77198,R,ugm-3,2.382,R,ugm-3 (Ref.eq)
07-01-2023,06:00,2.400,R,ugm-3 (FIDAS),2.61502,R,ugm-3,14.59781,R,ugm-3,18.60745,R,ugm-3,1.651,R,ugm-3 (Ref.eq)
07-01-2023,07:00,2.500,R,ugm-3 (FIDAS),8.51649,R,ugm-3,16.50429,R,ugm-3,29.56273,R,ugm-3,0.708,R,ugm-3 (Ref.eq)
07-01-2023,08:00,1.325,R,ugm-3 (FIDAS),9.61198,R,ugm-3,17.63220,R,ugm-3,32.37036,R,ugm-3,0.590,R,ugm-3 (Ref.eq)
07-01-2023,09:00,3.000,R,ugm-3 (FIDAS),16.85630,R,ugm-3,38.28920,R,ugm-3,64.13515,R,ugm-3,1.675,R,ugm-3 (Ref.eq)
07-01-2023,10:00,10.150,R,ugm-3 (FIDAS),32.54643,R,ugm-3,50.29014,R,ugm-3,100.19398,R,ugm-3,7.783,R,ugm-3 (Ref.eq)
07-01-2023,11:00,7.625,R,ugm-3 (FIDAS),57.77787,R,ugm-3,52.83616,R,ugm-3,141.42765,R,ugm-3,5.236,R,ugm-3 (Ref.eq)
07-01-2023,12:00,8.425,R,ugm-3 (FIDAS),62.72521,R,ugm-3,59.01325,R,ugm-3,155.19056,R,ugm-3,6.226,R,ugm-3 (Ref.eq)
07-01-2023,13:00,11.675,R,ugm-3 (FIDAS),62.61919,R,ugm-3,67.26839,R,ugm-3,163.28315,R,ugm-3,8.113,R,ugm-3 (Ref.eq)
07-01-2023,14:00,3.125,R,ugm-3 (FIDAS),10.99016,R,ugm-3,35.33760,R,ugm-3,52.18895,R,ugm-3,2.311,R,ugm-3 (Ref.eq)
07-01-2023,15:00,8.225,R,ugm-3 (FIDAS),35.12612,R,ugm-3,48.48170,R,ugm-3,102.34099,R,ugm-3,6.816,R,ugm-3 (Ref.eq)
07-01-2023,16:00,26.625,R,ugm-3 (FIDAS),91.10174,R,ugm-3,77.10596,R,ugm-3,216.79334,R,ugm-3,22.736,R,ugm-3 (Ref.eq)
07-01-2023,17:00,9.825,R,ugm-3 (FIDAS),18.23448,R,ugm-3,29.79001,R,ugm-3,57.74917,R,ugm-3,7.406,R,ugm-3 (Ref.eq)
07-01-2023,18:00,12.975,R,ugm-3 (FIDAS),14.84202,R,ugm-3,31.52346,R,ugm-3,54.28091,R,ugm-3,9.481,R,ugm-3 (Ref.eq)
07-01-2023,19:00,8.525,R,ugm-3 (FIDAS),13.71120,R,ugm-3,31.71592,R,ugm-3,52.73947,R,ugm-3,6.250,R,ugm-3 (Ref.eq)
07-01-2023,20:00,5.800,R,ugm-3 (FIDAS),4.66464,R,ugm-3,13.21676,R,ugm-3,20.36910,R,ugm-3,3.561,R,ugm-3 (Ref.eq)
07-01-2023,21:00,6.000,R,ugm-3 (FIDAS),5.61877,R,ugm-3,10.87296,R,ugm-3,19.48828,R,ugm-3,4.198,R,ugm-3 (Ref.eq)
07-01-2023,22:00,3.600,R,ugm-3 (FIDAS),1.80225,R,ugm-3,3.51248,R,ugm-3,6.27589,R,ugm-3,2.689,R,ugm-3 (Ref.eq)
07-01-2023,23:00,3.075,R,ugm-3 (FIDAS),2.29698,R,ugm-3,4.90092,R,ugm-3,8.42290,R,ugm-3,2.005,R,ugm-3 (Ref.eq)
07-01-2023,24:00,6.450,R,ugm-3 (FIDAS),2.04961,R,ugm-3,5.06000,R,ugm-3,8.20269,R,ugm-3,4.080,R,ugm-3 (Ref.eq)
08-01-2023,01:00,4.325,R,ugm-3 (FIDAS),1.13082,R,ugm-3,1.64260,R,ugm-3,3.37650,R,ugm-3,2.877,R,ugm-3 (Ref.eq)
08-01-2023,02:00,1.950,R,ugm-3 (FIDAS),0.70676,R,ugm-3,0.89817,R,ugm-3,1.98186,R,ugm-3,1.109,R,ugm-3 (Ref.eq)
08-01-2023,03:00,1.025,R,ugm-3 (FIDAS),0.17669,R,ugm-3,0.94021,R,ugm-3,1.21114,R,ugm-3,0.613,R,ugm-3 (Ref.eq)
08-01-2023,04:00,2.375,R,ugm-3 (FIDAS),0.49473,R,ugm-3,0.72781,R,ugm-3,1.48640,R,ugm-3,1.627,R,ugm-3 (Ref.eq)
08-01-2023,05:00,5.325,R,ugm-3 (FIDAS),0.45940,R,ugm-3,0.28653,R,ugm-3,0.99093,R,ugm-3,3.538,R,ugm-3 (Ref.eq)
08-01-2023,06:00,8.700,R,ugm-3 (FIDAS),0.77744,R,ugm-3,1.01001,R,ugm-3,2.20207,R,ugm-3,5.307,R,ugm-3 (Ref.eq)
08-01-2023,07:00,10.200,R,ugm-3 (FIDAS),0.45940,R,ugm-3,1.33251,R,ugm-3,2.03691,R,ugm-3,6.014,R,ugm-3 (Ref.eq)
08-01-2023,08:00,11.650,R,ugm-3 (FIDAS),0.91879,R,ugm-3,2.44482,R,ugm-3,3.85362,R,ugm-3,6.958,R,ugm-3 (Ref.eq)
08-01-2023,09:00,12.825,R,ugm-3 (FIDAS),1.62556,R,ugm-3,2.40711,R,ugm-3,4.89960,R,ugm-3,7.359,R,ugm-3 (Ref.eq)
08-01-2023,10:00,12.625,R,ugm-3 (FIDAS),2.36766,R,ugm-3,3.80162,R,ugm-3,7.43197,R,ugm-3,7.406,R,ugm-3 (Ref.eq)
08-01-2023,11:00,13.375,R,ugm-3 (FIDAS),3.46314,R,ugm-3,3.22293,R,ugm-3,8.53300,R,ugm-3,7.618,R,ugm-3 (Ref.eq)
08-01-2023,12:00,17.250,R,ugm-3 (FIDAS),4.91200,R,ugm-3,2.43272,R,ugm-3,9.96435,R,ugm-3,6.769,R,ugm-3 (Ref.eq)
08-01-2023,13:00,20.800,R,ugm-3 (FIDAS),6.99695,R,ugm-3,12.06287,R,ugm-3,22.79138,R,ugm-3,6.533,R,ugm-3 (Ref.eq)
08-01-2023,14:00,18.050,R,ugm-3 (FIDAS),8.58717,R,ugm-3,12.65241,R,ugm-3,25.81922,R,ugm-3,6.132,R,ugm-3 (Ref.eq)
08-01-2023,15:00,19.600,R,ugm-3 (FIDAS),12.50970,R,ugm-3,15.72146,R,ugm-3,34.90274,R,ugm-3,7.123,R,ugm-3 (Ref.eq)
08-01-2023,16:00,17.325,R,ugm-3 (FIDAS),11.76760,R,ugm-3,19.83212,R,ugm-3,37.87553,R,ugm-3,6.486,R,ugm-3 (Ref.eq)
08-01-2023,17:00,14.525,R,ugm-3 (FIDAS),14.09992,R,ugm-3,16.53121,R,ugm-3,38.15078,R,ugm-3,6.698,R,ugm-3 (Ref.eq)
08-01-2023,18:00,8.575,R,ugm-3 (FIDAS),7.10297,R,ugm-3,8.43206,R,ugm-3,19.32312,R,ugm-3,4.670,R,ugm-3 (Ref.eq)
08-01-2023,19:00,4.350,R,ugm-3 (FIDAS),6.92628,R,ugm-3,10.24443,R,ugm-3,20.86457,R,ugm-3,2.901,R,ugm-3 (Ref.eq)
08-01-2023,20:00,2.525,R,ugm-3 (FIDAS),5.90147,R,ugm-3,6.80608,R,ugm-3,15.85487,R,ugm-3,1.745,R,ugm-3 (Ref.eq)
08-01-2023,21:00,1.450,R,ugm-3 (FIDAS),3.25111,R,ugm-3,6.24557,R,ugm-3,11.23053,R,ugm-3,1.179,R,ugm-3 (Ref.eq)
08-01-2023,22:00,1.775,R,ugm-3 (FIDAS),4.52328,R,ugm-3,5.34091,R,ugm-3,12.27652,R,ugm-3,1.439,R,ugm-3 (Ref.eq)
08-01-2023,23:00,1.425,R,ugm-3 (FIDAS),2.72104,R,ugm-3,5.35173,R,ugm-3,9.52393,R,ugm-3,1.061,R,ugm-3 (Ref.eq)
08-01-2023,24:00,1.150,R,ugm-3 (FIDAS),1.27217,R,ugm-3,2.67370,R,ugm-3,4.62434,R,ugm-3,0.825,R,ugm-3 (Ref.eq)
09-01-2023,01:00,0.925,R,ugm-3 (FIDAS),1.13085,R,ugm-3,1.64253,R,ugm-3,3.37648,R,ugm-3,0.542,R,ugm-3 (Ref.eq)
09-01-2023,02:00,0.675,R,ugm-3 (FIDAS),0.65966,R,ugm-3,0.97038,R,ugm-3,1.98185,R,ugm-3,0.448,R,ugm-3 (Ref.eq)
09-01-2023,03:00,0.725,R,ugm-3 (FIDAS),0.49475,R,ugm-3,0.94799,R,ugm-3,1.70659,R,ugm-3,0.425,R,ugm-3 (Ref.eq)
09-01-2023,04:00,0.875,R,ugm-3 (FIDAS),0.24738,R,ugm-3,0.72173,R,ugm-3,1.10103,R,ugm-3,0.401,R,ugm-3 (Ref.eq)
09-01-2023,05:00,0.925,R,ugm-3 (FIDAS),0.91882,R,ugm-3,0.79322,R,ugm-3,2.20205,R,ugm-3,0.472,R,ugm-3 (Ref.eq)
09-01-2023,06:00,1.025,R,ugm-3 (FIDAS),1.27221,R,ugm-3,2.50846,R,ugm-3,4.45916,R,ugm-3,0.590,R,ugm-3 (Ref.eq)
09-01-2023,07:00,3.425,R,ugm-3 (FIDAS),4.17002,R,ugm-3,5.55220,R,ugm-3,11.94614,R,ugm-3,1.486,R,ugm-3 (Ref.eq)
09-01-2023,08:00,3.725,R,ugm-3 (FIDAS),15.58456,R,ugm-3,11.50201,R,ugm-3,35.39799,R,ugm-3,2.075,R,ugm-3 (Ref.eq)
09-01-2023,09:00,4.900,R,ugm-3 (FIDAS),29.54351,R,ugm-3,31.27696,R,ugm-3,76.57638,R,ugm-3,2.453,R,ugm-3 (Ref.eq)
09-01-2023,10:00,7.100,R,ugm-3 (FIDAS),18.80042,R,ugm-3,16.64548,R,ugm-3,45.47238,R,ugm-3,3.467,R,ugm-3 (Ref.eq)
09-01-2023,11:00,7.200,R,ugm-3 (FIDAS),14.41836,R,ugm-3,13.51035,R,ugm-3,35.61820,R,ugm-3,4.104,R,ugm-3 (Ref.eq)
09-01-2023,12:00,4.625,R,ugm-3 (FIDAS),13.42887,R,ugm-3,11.55932,R,ugm-3,32.14997,R,ugm-3,2.925,R,ugm-3 (Ref.eq)
09-01-2023,13:00,4.825,R,ugm-3 (FIDAS),17.35151,R,ugm-3,21.61967,R,ugm-3,48.22495,R,ugm-3,2.736,R,ugm-3 (Ref.eq)
09-01-2023,14:00,5.050,R,ugm-3 (FIDAS),,,,,,,,,,2.571,R,ugm-3 (Ref.eq)
09-01-2023,15:00,3.850,R,ugm-3 (FIDAS),13.07548,R,ugm-3,14.63354,R,ugm-3,34.68233,R,ugm-3,2.264,R,ugm-3 (Ref.eq)
09-01-2023,16:00,4.150,R,ugm-3 (FIDAS),15.30184,R,ugm-3,17.16537,R,ugm-3,40.62787,R,ugm-3,2.005,R,ugm-3 (Ref.eq)
09-01-2023,17:00,5.800,R,ugm-3 (FIDAS),29.54351,R,ugm-3,29.35016,R,ugm-3,74.64958,R,ugm-3,2.807,R,ugm-3 (Ref.eq)
09-01-2023,18:00,6.125,R,ugm-3 (FIDAS),24.77273,R,ugm-3,28.46262,R,ugm-3,66.44693,R,ugm-3,3.774,R,ugm-3 (Ref.eq)
09-01-2023,19:00,6.300,R,ugm-3 (FIDAS),14.13565,R,ugm-3,9.70489,R,ugm-3,31.37925,R,ugm-3,3.939,R,ugm-3 (Ref.eq)